Regional Weather Roundup
Issued by NWS

Home | Current Version | Previous Version | Graphics & Text | Print | Product List | Glossary On
Versions: 1 2 3 4 5 6 7 8 9 10 11 12 13 14 15 16 17 18 19 20 21 22 23 24 25 26 27 28 29 30 31 32 33 34 35 36 37 38 39 40 41 42 43 44 45 46 47 48 49 50
000
ASUS43 KBIS 160810
RWRND

NORTH DAKOTA REGIONAL WEATHER ROUNDUP
NATIONAL WEATHER SERVICE BISMARCK ND
300 AM CDT WED APR 16 2014

NOTE: "FAIR" INDICATES FEW OR NO CLOUDS BELOW 12,000 FEET WITH NO
SIGNIFICANT WEATHER AND/OR OBSTRUCTIONS TO VISIBILITY.


NDZ001>003-009>011-017-160900-
NORTHWEST NORTH DAKOTA

CITY           SKY/WX    TMP DP  RH WIND       PRES   REMARKS
WILLISTON        N/A    N/A N/A N/A MISG      29.85R
MINOT          LGT SNOW  24  20  84 NE14      29.91R FOG     WCI  12
MINOT AFB      LGT SNOW  24  23  98 E18       29.91S VSB 1   WCI  10
$$

NDZ018>021-031>035-040>046-160900-
SOUTHWEST NORTH DAKOTA

CITY           SKY/WX    TMP DP  RH WIND       PRES   REMARKS
BISMARCK       CLOUDY    30  15  53 E17G26    29.80R WCI  18
DICKINSON      CLOUDY    26  17  68 NE16      29.72R WCI  14
GARRISON         N/A     26  21  81 E17       29.84R WCI  13
HETTINGER ARPT CLOUDY    30  21  69 NE12      29.69R
$$

NDZ004>008-012>016-024-026-027-054-160900-
NORTHEAST NORTH DAKOTA

CITY           SKY/WX    TMP DP  RH WIND       PRES   REMARKS
GRAND FORKS    CLOUDY    30  12  47 E14       29.97S WCI  19
GRND FRKS AFB  CLOUDY    29  13  52 E9        30.01S WCI  20
DEVILS LAKE    CLOUDY    27  14  59 E16G28    29.95S WCI  14
$$

NDZ022-023-025-028>030-036>039-047>053-160900-
SOUTHEAST NORTH DAKOTA

CITY           SKY/WX    TMP DP  RH WIND       PRES   REMARKS
FARGO          LGT SNOW  29  24  82 E15       29.95F WCI  18
JAMESTOWN      CLOUDY    27  24  89 E17G26    29.86R WCI  14
$$




USA.gov is the U.S. government's official web portal to all federal, state and local government web resources and services.